Regional Weather Roundup
Issued by NWS

Home | Current Version | Previous Version | Text Only | Print | Product List | Glossary On
Versions: 1 2 3 4 5 6 7 8 9 10 11 12 13 14 15 16 17 18 19 20 21 22 23 24 25 26 27 28 29 30 31 32 33 34 35 36 37 38 39 40 41 42 43 44 45 46 47 48 49 50
000
ASUS43 KMPX 060910
RWRMN
WEATHER ROUNDUP FOR MINNESOTA
NATIONAL WEATHER SERVICE TWIN CITIES/CHANHASSEN MN
300 AM CST FRI MAR 06 2015


NOTE: "FAIR" INDICATES FEW OR NO CLOUDS BELOW 12,000 FEET WITH NO
SIGNIFICANT WEATHER AND/OR OBSTRUCTIONS TO VISIBILITY. N/A MEANS
CURRENT SKY AND/OR WEATHER CONDITIONS ARE NOT AVAILABLE.

MNZ060>063-068>070-061000-
   Twin Cities Metro

CITY           SKY/WX    TMP DP  RH WIND       PRES   REMARKS
TWIN CITIES    PTCLDY    12   1  61 S8        30.16F WCI   0
ST PAUL        CLOUDY    11   3  70 SE9       30.19F WCI  -2
CRYSTAL        CLEAR     13   2  61 S7        30.14F WCI   3
BLAINE         PTCLDY    12   3  67 S9        30.14F WCI   0
LAKEVILLE      CLOUDY     9   0  66 S13       30.17F WCI  -7
EDEN PRAIRIE   CLEAR     12   1  61 S12       30.15F WCI  -2
SOUTH ST PAUL  CLOUDY    11   2  66 S5        30.18F WCI   3
LAKE ELMO      CLOUDY    12   3  67 S10       30.18F WCI  -1
$$
MNZ001>005-007-008-013>017-022>024-027-028-061000-
   Northwest Minnesota

CITY           SKY/WX    TMP DP  RH WIND       PRES   REMARKS
BEMIDJI        CLOUDY    15   6  67 SW8       29.91F WCI   4
HALLOCK        CLEAR     14   9  79 NW8       29.94R WCI   3
ROSEAU         PTCLDY    18  10  73 W8        29.89S WCI   7
WARROAD        PTCLDY    16  10  79 SW7       29.88S WCI   6
THIEF RVR FALL CLEAR     14   9  79 SW9       29.92S WCI   2
CROOKSTON      CLEAR     12   9  85 SW8       29.96S WCI   1
FOSSTON        PTCLDY    12   7  79 S12       29.93F WCI  -2
DETROIT LAKES  PTCLDY    19  10  68 SW12      29.95F WCI   7
MOORHEAD       CLEAR     16  10  79 S7        29.99S WCI   6
PARK RAPIDS    CLOUDY    13   4  67 S7        29.95F WCI   3
MAHNOMEN       FAIR      16   9  74 SW10      29.95S WCI   3
$$
MNZ006-009>011-018-025>026-061000-
   North Central Minnesota

CITY           SKY/WX    TMP DP  RH WIND       PRES   REMARKS
BAUDETTE       PTCLDY    11   4  73 SW7       29.86F WCI   0
FLAG ISLAND    CLEAR     12   7  79 SW7       29.85S WCI   2
INTL FALLS     CLOUDY    11   2  67 SW8       29.89F WCI  -1
WASKISH        CLEAR     16   7  67 CALM      29.89F
BIG FORK       CLOUDY    12   3  67 S9        29.91F WCI   0
LONGVILLE      CLOUDY    12   3  67 S7        29.97F WCI   2
GRAND RAPIDS   CLOUDY     7   1  78 S12       29.95F WCI  -9
CRANE LAKE     CLOUDY    10   1  67 S5        29.94F WCI   2
ORR            CLOUDY     9   0  66 S7        29.90F WCI  -3
COOK           CLOUDY     9   1  72 S7        29.94F WCI  -3
WALKER         CLOUDY    14   4  63 SW9G16    29.93F WCI   2
$$
MNZ012-019>021-037-061000-
   Northeast Minnesota

CITY           SKY/WX    TMP DP  RH WIND       PRES   REMARKS
DULUTH         CLEAR      8  -1  66 SW16G25   30.00F WCI -10
ELY            CLOUDY     9   1  72 SW12      29.94F WCI  -6
HIBBING        CLOUDY     4  -2  76 CALM      29.97F
EVELETH        CLEAR      9   1  72 SW8       29.98F WCI  -4
DULUTH HARBOR  CLEAR     10   1  67 SW20G30   30.09F WCI  -8
TWO HARBORS    CLEAR      7   0  72 SW5       30.02F WCI  -2
SILVER BAY     CLEAR      7   0  72 SW7       30.01F WCI  -5
GRAND MARAIS     N/A     14   5  67 W13G21    30.05F WCI   0
G MARAIS ARPRT MOCLDY     5  -2  72 S12       29.95F WCI -11
$$
MNZ029>031-032-039>041-046>048-054>057-064-061000-
   West Central Minnesota

CITY           SKY/WX    TMP DP  RH WIND       PRES   REMARKS
FERGUS FALLS   CLOUDY    16   7  67 S10       30.04F WCI   3
WHEATON        MOCLDY    12   7  79 S7        30.04F WCI   2
MORRIS         CLOUDY    12   7  79 S10       30.03F WCI  -1
ALEXANDRIA     CLOUDY    14   6  70 S13       30.01F WCI   0
ELBOW LAKE     CLOUDY    13   8  79 S10       30.01F WCI   0
WADENA         CLOUDY    12   7  79 S10       29.99F WCI  -1
GLENWOOD       MOCLDY    12   7  79 S10       30.04F WCI  -1
APPLETON         N/A     12   7  79 S3        30.06F
BENSON         MOCLDY    12   7  79 S8        30.05F WCI   1
ORTONVILLE     CLEAR     18   7  62 S5        30.04F WCI  11
MADISON        CLEAR     21  10  63 W6        30.06F WCI  14
WILLMAR        FAIR      10   5  79 SE6       30.08F WCI   1
$$
MNZ033>034-036-042>043-049>051-058-059-061000-
   Central Minnesota

CITY           SKY/WX    TMP DP  RH WIND       PRES   REMARKS
ST CLOUD       CLEAR     10   3  73 S10       30.09F WCI  -4
SAUK CENTRE    FAIR      11   5  76 S5        30.05F WCI   3
PAYNESVILLE    CLEAR     10   4  78 SE9       30.07F WCI  -4
AITKIN         CLOUDY    12   3  67 S8        30.00F WCI   1
PINE RIVER     CLOUDY    12   5  73 S7        30.02F WCI   2
BRAINERD       CLOUDY    11   3  70 S15G22    30.02F WCI  -5
STAPLES        CLOUDY    12   5  73 S9        30.00F WCI   0
LONG PRAIRIE   CLOUDY    12   5  73 S10       30.03F WCI  -1
LITTLE FALLS   PTCLDY    10   3  72 S3        30.06F
LITCHFIELD     CLEAR     12   7  79 CALM      30.09F
BUFFALO        CLEAR     13   3  66 S7        30.13F WCI   2
MAPLE LAKE     CLEAR     13   6  73 S8        30.12F WCI   2
$$
MNZ037-044-045-052-053-061000-
   East Central Minnesota

CITY           SKY/WX    TMP DP  RH WIND       PRES   REMARKS
PRINCETON      CLEAR     10   3  72 S6        30.11F WCI   1
MORA           PTCLDY     5   0  78 S5        30.11F WCI  -4
CAMBRIDGE      PTCLDY     9   0  66 S5        30.11F WCI   0
RUSH CITY      MOCLDY     6   1  78 S8        30.13F WCI  -7
MOOSE LAKE     PTCLDY     7   1  78 CALM      30.05F
HINCKLEY       FAIR       5   0  78 S7        30.10F WCI  -7
CLOQUET        CLEAR      7   0  72 S14       30.02F WCI -10
MCGREGOR       CLOUDY    12   5  73 S10G16    30.02F WCI  -1
$$
MNZ071>073-080-081-089-090-097-098-061000-
   Southwest Minnesota

CITY           SKY/WX    TMP DP  RH WIND       PRES   REMARKS
MONTEVIDEO     CLEAR     14   9  79 SW6       30.07F WCI   5
GRANITE FALLS  CLEAR     15   8  76 S6        30.09F WCI   6
CANBY          CLEAR     22  10  61 SW18G25   30.05F WCI   7
MARSHALL       CLEAR     23   9  54 SW20G25   30.07F WCI   8
REDWOOD FALLS  CLEAR     16   7  67 S10       30.10F WCI   4
OLIVIA         CLEAR     14   9  79 S8        30.08F WCI   3
PIPESTONE      CLEAR     16   7  67 S8        30.08F WCI   5
WINDOM         CLEAR     16   7  67 S13       30.11F WCI   2
WORTHINGTON    CLEAR     16   7  67 S16       30.12F WCI   0
JACKSON        CLEAR     16   7  67 S15       30.12F WCI   1
TRACY          CLEAR     20  10  65 SW22G28   30.08F WCI   4
SLAYTON        CLEAR     17   7  65 SW17      30.08F WCI   1
$$
MNZ065>067-074>077-082>085-091>093-061000-
   South Central Minnesota

CITY           SKY/WX    TMP DP  RH WIND       PRES   REMARKS
MANKATO        CLEAR     12   1  62 S9        30.15F WCI   0
NEW ULM        CLEAR     12   5  73 S10       30.13F WCI  -1
ST JAMES       CLEAR     16   7  67 S17       30.14F WCI   0
FAIRMONT       CLEAR     12   3  67 S14       30.13F WCI  -3
GLENCOE        CLEAR     13   7  74 S9        30.12F WCI   1
FARIBAULT      CLEAR      9   0  66 S12G17    30.17F WCI  -6
OWATONNA       CLEAR      9   0  66 S20       30.16F WCI -11
WASECA         CLEAR     12   3  67 S20G25    30.19F WCI  -6
ALBERT LEA     CLOUDY     9   1  72 S16G23    30.18F WCI  -9
$$
MNZ078>079-086>088-094>096-061000-
   Southeast Minnesota

CITY           SKY/WX    TMP DP  RH WIND       PRES   REMARKS
ROCHESTER      CLOUDY     5  -2  72 S18       30.20F WCI -15
RED WING       CLOUDY     9   0  66 SE5       30.22F WCI   0
STANTON        MOCLDY    13   2  62 S16       30.16F WCI  -4
DODGE CENTER   CLOUDY     7   0  72 S18       30.17F WCI -12
WINONA         CLEAR      9   1  72 CALM      30.31F
AUSTIN         CLEAR      5  -2  72 S14       30.21F WCI -12
PRESTON        PTCLDY     2  -4  75 S20       30.24F WCI -19
$$
ABBREVIATIONS USED IN REMARKS
   TC - TEMPERATURES IN CELSIUS
  WCI - WIND CHILL INDEX
   HX - HEAT INDEX
  VSB - VISIBILITY
$$


USA.gov is the U.S. government's official web portal to all federal, state and local government web resources and services.